[[{"header":{"parameterUnit":"m.s-1","parameterCategory":1,"la1":30.2991,"la2":30.254,"lo1":-89.0895,"lo2":-89.0444,"dy":0.0017,"dx":0.0017,"nx":28,"ny":28,"refTime":"2024-09-27T21:00:00:Z","depth":0,"parameterNumber":2,"parameterNumberName":"U-component_of_WINDS"},"data":[0,0,0,0,0,0,0,0,0,0,0,0,0,0,0,0,0,0,0,0,0,0,0,0,0,0,0,0,0,0,0,0,0,0,0,0,0,0,0,0,0,0,0,0,0,0,0,0,0,0,0,0,0,0,0,0,0,0,3.8064,3.8065,0,3.82,3.8202,3.8203,3.8182,3.818,3.8177,3.8175,3.8316,3.8321,3.8327,0,0,0,0,0,0,0,0,0,0,0,0,0,3.7787,3.7792,3.8064,3.8065,3.8067,3.82,3.8202,3.8204,3.8182,3.818,3.8177,3.8174,3.8314,3.8321,3.8328,0,0,0,0,0,0,0,0,0,0,0,0,0,3.7913,3.7794,3.8063,3.8073,3.8075,3.8199,3.8202,3.8204,3.8183,3.8179,3.8176,3.8173,3.8311,3.832,3.8329,3.8453,0,0,3.8356,3.836,0,0,0,0,0,0,0,0,3.7906,3.7924,3.807,3.8072,3.8075,3.817,3.8156,3.8288,3.8184,3.8142,3.8175,3.8171,3.827,3.8282,3.8316,3.846,3.8466,3.8357,3.8362,3.8366,3.8368,0,0,0,0,0,0,0,3.7897,3.7918,3.8118,3.8072,3.8075,3.807,3.8084,3.818,3.8224,3.8145,3.8144,3.816,3.8271,3.8307,3.8319,3.8468,3.8356,3.8364,3.837,3.8373,3.8722,3.8726,0,0,0,0,0,0,3.7886,3.791,3.8113,3.8122,3.798,3.8078,3.8094,3.8143,3.8223,3.8232,3.8163,3.8159,3.8294,3.8308,3.8324,3.8474,3.8366,3.8374,3.8379,3.8718,3.8723,3.8727,0,0,0,0,0,0,3.788,3.7904,3.8108,3.8016,3.8041,3.8087,3.8142,3.8148,3.8184,3.8237,3.8244,3.8192,3.8291,3.8311,3.8421,3.8479,3.8378,3.8386,3.8713,3.8719,3.8725,3.8776,0,0,0,0,0,0,3.7872,3.7902,3.795,3.8017,3.8046,3.8203,3.8146,3.8153,3.8199,3.8195,3.8265,3.8274,3.829,3.8408,3.843,3.8489,3.8393,3.8708,3.8716,3.8723,3.877,3.8783,3.8795,0,0,0,0,0,3.7862,3.7959,3.7952,3.7977,3.8107,3.8206,3.8223,3.8239,3.8204,3.8252,3.8286,3.8272,3.8469,3.842,3.8444,3.8507,3.8705,3.8714,3.8722,3.8764,3.8781,3.8795,0,0,0,0,0,0,3.7897,3.7968,3.7961,3.8082,3.8138,3.8202,3.8263,3.8257,3.8324,3.8317,3.8335,3.8352,3.8463,3.8496,3.844,3.8632,3.8582,3.8596,3.8605,3.8622,3.8634,3.8623,3.8401,0,0,0,0,0,3.7919,3.7994,3.8052,3.8153,3.8182,3.8218,3.8262,3.827,3.8329,3.8352,3.8395,3.8453,3.8528,3.8577,3.8649,3.8775,3.879,3.8831,3.8843,3.8853,3.8865,3.8934,3.8952,3.8756,3.8756,3.8756,0,0,3.7965,3.8013,3.8059,3.8162,3.8206,3.8283,3.8238,3.8322,3.8379,3.8365,3.8471,3.8505,3.8571,3.8689,3.8744,3.872,3.8923,3.8864,3.8872,3.8878,3.8945,3.8963,3.898,3.8762,3.8761,3.876,0,0,3.8087,3.8132,3.822,3.8266,3.8334,3.8357,3.8379,3.8444,3.8465,3.8572,3.8564,3.8633,3.8762,3.8809,3.885,3.8992,3.8981,3.9015,3.908,3.9148,3.9163,3.9177,3.9226,3.9244,3.9027,3.9027,3.9027,0,3.8136,3.8251,3.8267,3.8352,3.8397,3.8389,3.8479,3.8523,3.8611,3.8642,3.8615,3.8777,3.8821,3.895,3.8985,3.9019,3.9044,3.9006,3.9159,3.9173,3.9186,3.9234,3.9253,3.9031,3.903,3.903,3.903,0,3.8307,3.8387,3.8451,3.8535,3.8588,3.8676,3.8705,3.8757,3.8761,3.8788,3.8897,3.895,3.9032,3.9064,3.9069,3.9194,3.9177,3.9155,3.9105,3.9208,3.9253,3.9272,3.9036,3.9034,3.9033,3.9033,0,0,3.8453,3.8546,3.8569,3.8608,3.8682,3.8745,3.8832,3.8912,3.8956,3.9018,3.9091,3.9201,3.918,3.9227,3.9238,3.9297,3.9405,3.9267,3.9269,3.9289,3.9546,3.9561,3.9582,3.9399,3.9402,3.9405,3.954,0,3.8582,3.8735,3.8752,3.8889,3.8963,3.8957,3.9032,3.9087,3.9114,3.9182,3.9213,3.929,3.9258,3.9286,3.9344,3.9379,3.9456,3.937,3.9467,3.947,3.9449,3.9605,3.9622,3.9746,3.9557,3.956,3.9563,0,3.8752,3.8817,3.8961,3.9025,3.9057,3.9125,3.92,3.9265,3.9326,3.9343,3.9395,3.9398,3.9489,3.9437,3.9562,3.9503,3.9544,3.9567,3.9572,3.9581,3.9521,3.9617,3.9786,3.9805,3.9591,3.9588,3.9586,0,3.8843,3.8967,3.9069,3.9102,3.918,3.9228,3.9263,3.9321,3.9368,3.9435,3.9466,3.9542,3.9583,3.9643,3.9666,3.9627,3.979,3.974,3.9806,3.9805,3.9839,3.9836,4.0016,3.9868,3.9868,3.9867,3.9867,0,3.8983,3.9071,3.9111,3.9174,3.9272,3.9292,3.9389,3.9422,3.9474,3.9543,3.9544,3.9609,3.9637,3.9707,3.9726,3.9826,3.9845,3.9861,3.9865,3.986,3.9858,3.9886,3.9878,3.9872,3.9871,3.987,3.987,0,3.9101,3.9131,3.9242,3.9307,3.9325,3.9395,3.945,3.9511,3.9538,3.9626,3.9648,3.9691,3.9773,3.9803,3.9904,3.9917,4.0033,4.003,4.0011,4.0012,4.0075,4.0068,4.0278,4.0307,4.0141,4.0143,4.0144,0,3.9188,3.9255,3.9327,3.9373,3.9409,3.9484,3.9532,3.9555,3.9605,3.9681,3.9733,3.9815,3.9881,4.0013,4.0054,4.013,4.0129,4.0197,4.014,4.0134,4.0129,4.0124,4.013,4.0207,4.0209,4.021,4.0211,0,3.9339,3.935,3.9419,3.9494,3.9552,3.9612,3.967,3.9708,3.974,3.9797,3.988,3.9932,4.0034,4.0115,4.0194,4.0231,4.0227,4.0229,4.0248,4.0243,4.0229,4.0237,4.0039,4.0224,4.0223,4.0222,4.0221,4.0221,3.9443,3.9502,3.9562,3.9639,3.9685,3.974,3.98,3.9835,3.9905,3.999,4.0,4.0089,4.015,4.0256,4.0296,4.0367,4.0349,4.0377,4.0383,4.039,4.0394,4.0219,4.0382,4.0382,4.0382,4.0381,4.0381,0,3.9592,3.9631,3.9702,3.9783,3.9844,3.9835,3.9899,3.9951,4.003,4.0087,4.0152,4.0248,4.0327,4.0375,4.0454,4.0502,4.0502,4.0522,4.0518,4.0526,4.0406,4.0381,4.052,4.052,4.052,4.052,4.052,4.052,3.9677,3.9777,3.9796,3.9919,3.9957,4.0045,4.0082,4.0133,4.0178,4.0286,4.0351,4.0381,4.0435,4.0518,4.059,4.0602,4.0631,4.0653,4.0663,4.0549,4.0535,4.0521,4.0497,4.0659,4.0659,4.0777,4.0778,4.0779]},{"header":{"parameterUnit":"m.s-1","parameterCategory":1,"la1":30.2991,"la2":30.254,"lo1":-89.0895,"lo2":-89.0444,"dy":0.0017,"dx":0.0017,"nx":28,"ny":28,"refTime":"2024-09-27T21:00:00:Z","depth":0,"parameterNumber":3,"parameterNumberName":"V-component_of_WINDS"},"data":[0,0,0,0,0,0,0,0,0,0,0,0,0,0,0,0,0,0,0,0,0,0,0,0,0,0,0,0,0,0,0,0,0,0,0,0,0,0,0,0,0,0,0,0,0,0,0,0,0,0,0,0,0,0,0,0,0,0,2.0023,2.0025,0,2.0188,2.019,2.0191,2.0232,2.0231,2.023,2.0229,2.0401,2.0406,2.0412,0,0,0,0,0,0,0,0,0,0,0,0,0,1.9746,1.9751,2.0023,2.0025,2.0027,2.0187,2.019,2.0192,2.0232,2.0231,2.023,2.0228,2.0399,2.0406,2.0412,0,0,0,0,0,0,0,0,0,0,0,0,0,1.9884,1.9752,2.0022,2.0066,2.0072,2.0187,2.019,2.0193,2.0232,2.0231,2.0229,2.0228,2.0397,2.0405,2.0413,2.0497,0,0,2.0439,2.0442,0,0,0,0,0,0,0,0,1.9876,1.9894,2.0058,2.0063,2.007,2.0188,2.0155,2.0295,2.0233,2.0172,2.0229,2.0227,2.0331,2.0345,2.038,2.0506,2.0513,2.044,2.0445,2.0448,2.0451,0,0,0,0,0,0,0,1.9867,1.9887,2.0088,2.006,2.0067,2.0079,2.0097,2.0182,2.0259,2.0177,2.018,2.0199,2.0334,2.0371,2.0384,2.0515,2.0439,2.0447,2.0452,2.0455,2.0721,2.0723,0,0,0,0,0,0,1.9849,1.9879,2.0083,2.0093,1.9967,2.0085,2.0105,2.0151,2.0258,2.0272,2.02,2.02,2.0358,2.0374,2.039,2.0498,2.0448,2.0456,2.0461,2.0719,2.0722,2.0724,0,0,0,0,0,0,1.9843,1.9867,2.0076,1.9987,2.0015,2.0091,2.0143,2.0156,2.0193,2.0275,2.029,2.0224,2.0357,2.0378,2.0471,2.0504,2.046,2.0467,2.0717,2.072,2.0723,2.0712,0,0,0,0,0,0,1.9835,1.9864,1.9896,1.9987,2.0019,2.0153,2.0145,2.016,2.0207,2.0208,2.0301,2.0315,2.0358,2.0458,2.0479,2.0515,2.0474,2.0714,2.0718,2.0722,2.0709,2.0714,2.0718,0,0,0,0,0,1.9825,1.9887,1.9898,1.9922,2.0061,2.0155,2.0173,2.022,2.0209,2.0243,2.0296,2.0312,2.0496,2.0467,2.0491,2.053,2.0712,2.0717,2.0721,2.0708,2.0713,2.0718,0,0,0,0,0,0,1.9798,1.99,1.9913,2.0006,2.0071,2.0161,2.0205,2.0224,2.0294,2.0293,2.0349,2.037,2.0459,2.0503,2.0469,2.0618,2.0605,2.0614,2.0586,2.0592,2.0596,2.0584,2.0481,0,0,0,0,0,1.9803,1.987,1.9955,2.0029,2.0061,2.0127,2.017,2.02,2.0271,2.0299,2.0359,2.0428,2.0502,2.0549,2.0621,2.0716,2.0738,2.0754,2.0758,2.0761,2.077,2.0825,2.0834,2.0739,2.0739,2.0739,0,0,1.9814,1.9878,1.9917,2.0026,2.008,2.0149,2.015,2.0223,2.0276,2.031,2.0402,2.0448,2.0529,2.0623,2.0667,2.0663,2.0801,2.0767,2.0769,2.0776,2.0831,2.084,2.0848,2.0742,2.0741,2.0741,0,0,1.987,1.9924,1.9993,2.0047,2.0129,2.0172,2.0189,2.0276,2.0308,2.04,2.0428,2.0492,2.0617,2.0674,2.0719,2.0797,2.0816,2.0819,2.0842,2.0895,2.0903,2.091,2.094,2.0949,2.0827,2.0827,2.0827,0,1.9874,1.9979,2.0026,2.0098,2.0146,2.0179,2.025,2.0301,2.0402,2.0435,2.0428,2.0587,2.0643,2.0752,2.0771,2.0806,2.0828,2.0809,2.0897,2.0905,2.0912,2.0942,2.0952,2.0827,2.0827,2.0827,2.0827,0,1.998,2.0052,2.0098,2.0195,2.0248,2.0319,2.0378,2.0426,2.0452,2.0496,2.0591,2.066,2.0747,2.0775,2.0801,2.0888,2.0883,2.0886,2.0874,2.0921,2.0949,2.0961,2.0827,2.0827,2.0827,2.0827,0,0,2.0025,2.0147,2.0163,2.0208,2.0301,2.0358,2.0431,2.0516,2.0557,2.0626,2.069,2.0796,2.0799,2.0851,2.0884,2.093,2.099,2.0928,2.0931,2.0939,2.1094,2.1092,2.1104,2.1002,2.1005,2.1006,2.1087,0,2.0093,2.0224,2.0269,2.0378,2.0447,2.048,2.0544,2.0608,2.0652,2.0718,2.0767,2.0841,2.0839,2.0871,2.0918,2.0973,2.1022,2.0967,2.1065,2.1068,2.1045,2.1119,2.1117,2.119,2.1099,2.1101,2.1102,0,2.0191,2.0261,2.0377,2.0462,2.0493,2.0549,2.0632,2.0693,2.0768,2.0797,2.0854,2.0884,2.0964,2.0945,2.1057,2.1019,2.1061,2.1094,2.1098,2.111,2.1089,2.1135,2.1214,2.1226,2.112,2.1118,2.1117,0,2.0214,2.0337,2.0423,2.046,2.0562,2.0601,2.0646,2.0719,2.0767,2.0839,2.0872,2.0952,2.0997,2.1059,2.1111,2.1092,2.1219,2.1204,2.1247,2.1246,2.1273,2.1271,2.1363,2.1297,2.1297,2.1297,2.1297,0,2.0287,2.0357,2.0435,2.0487,2.0567,2.0619,2.0697,2.0743,2.0808,2.0872,2.0905,2.0965,2.1028,2.1096,2.1137,2.1224,2.1244,2.1271,2.1281,2.1269,2.1266,2.1299,2.1296,2.13,2.1299,2.1299,2.1298,0,2.0327,2.0381,2.0477,2.0565,2.0589,2.0645,2.0721,2.0775,2.082,2.09,2.0922,2.0993,2.1076,2.1132,2.1238,2.1265,2.1361,2.137,2.1335,2.1341,2.1381,2.1377,2.1499,2.1518,2.1437,2.1438,2.1439,0,2.0371,2.0425,2.0519,2.0564,2.0608,2.068,2.0729,2.0782,2.0833,2.0923,2.0966,2.105,2.1121,2.1251,2.1313,2.1395,2.1407,2.1444,2.1419,2.1406,2.141,2.1407,2.1414,2.1448,2.1448,2.1449,2.1449,0,2.0443,2.0468,2.0537,2.0617,2.0676,2.0741,2.0807,2.0842,2.0907,2.0963,2.1047,2.1101,2.1209,2.1293,2.138,2.1428,2.1451,2.1456,2.1471,2.146,2.1439,2.1453,2.1348,2.1454,2.1453,2.1453,2.1453,2.1453,2.0488,2.0539,2.0613,2.069,2.0745,2.0807,2.0862,2.0914,2.0984,2.1076,2.1103,2.1191,2.1266,2.1386,2.1435,2.1506,2.1503,2.1523,2.1529,2.1534,2.1535,2.1426,2.1521,2.1521,2.1521,2.1521,2.1521,0,2.0564,2.0614,2.0684,2.0775,2.0836,2.085,2.0925,2.0976,2.1052,2.112,2.1188,2.1286,2.1368,2.1437,2.1522,2.1565,2.1578,2.1586,2.1585,2.1596,2.1531,2.1511,2.1575,2.1575,2.1575,2.1575,2.1575,2.1575,2.0611,2.0698,2.0731,2.0847,2.0897,2.0982,2.1023,2.1081,2.1135,2.1243,2.131,2.1354,2.1424,2.1514,2.1591,2.1609,2.164,2.1646,2.1667,2.1606,2.16,2.1594,2.1576,2.1652,2.1652,2.1727,2.1727,2.1728]}]]